Regional Weather Roundup
Issued by NWS

Home | Current Version | Previous Version | Text Only | Print | Product List | Glossary Off
Versions: 1 2 3 4 5 6 7 8 9 10 11 12 13 14 15 16 17 18 19 20 21 22 23 24 25 26 27 28 29 30 31 32 33 34 35 36 37 38 39 40 41 42 43 44 45 46 47 48 49 50

928
ASUS44 KJAN 201503
RWRMS

MISSISSIPPI HOURLY WEATHER ROUNDUP
NATIONAL WEATHER SERVICE JACKSON MS
1000 AM CDT MON OCT 20 2014

NOTE: "FAIR: INDICATES FEW OR NO CLOUDS BELOW 12,000 FEET WITH NO
SIGNIFICANT WEATHER AND/OR OBSTRUCTIONS TO VISIBILITY.

MSZ001>002-007>008-010>013-018>021-025>028-034>036-201600-
NORTHWEST MISSISSIPPI

CITY           SKY/WX    TMP DP  RH WIND       PRES   REMARKS
CLARKSDALE     FAIR      61  54  77 CALM      30.12F
CLEVELAND        N/A     61  55  82 CALM      30.12R HAZE
GREENWOOD      SUNNY     62  52  69 CALM      30.11S
GREENVILLE     SUNNY     62  53  72 CALM      30.11S
GRENADA          N/A    N/A N/A N/A MISG        N/A
OLIVE BRANCH   MOSUNNY   59  55  88 CALM      30.12R
OXFORD         FAIR      59  50  72 CALM      30.13S
TUNICA         SUNNY     57  55  94 CALM      30.13S
$$

MSZ003>006-009-014>017-022>024-029>033-037>039-201600-
NORTHEAST MISSISSIPPI

CITY           SKY/WX    TMP DP  RH WIND       PRES   REMARKS
COLUMBUS AFB   SUNNY     57  57 100 S1        30.11S
CORINTH          N/A     59  52  77 CALM        N/A
GOLDN TRIANGLE SUNNY     57  52  82 CALM      30.11S
TUPELO         SUNNY     61  53  75 CALM      30.11S
$$

MSZ040-058-201600-
CENTRAL MISSISSIPPI

CITY           SKY/WX    TMP DP  RH WIND       PRES   REMARKS
JACKSON INTL   SUNNY     63  53  70 CALM      30.11S
JACKSON HAWKNS SUNNY     64  52  64 CALM      30.11S
MERIDIAN KEY   SUNNY     62  53  72 CALM      30.10S
MERIDIAN NAS   MOSUNNY   62  51  67 CALM      30.11S
RAYMOND        FAIR      57  52  82 MISG      30.11S HAZE
VICKSBURG      SUNNY     62  52  69 CALM      30.12S
$$

MSZ059>079-201600-
SOUTH MISSISSIPPI

CITY           SKY/WX    TMP DP  RH WIND       PRES   REMARKS
BROOKHAVEN     FAIR      64  52  63 CALM      30.12S
COLUMBIA         N/A    N/A N/A N/A MISG        N/A
HATTIESBURG    SUNNY     63  53  70 CALM      30.11S
MCCOMB         SUNNY     65  51  60 CALM      30.09S
NATCHEZ        SUNNY     64  54  68 CALM      30.11S
PINE BELT      SUNNY     61  52  72 CALM      30.12R
$$

MSZ080>082-201600-
COASTAL MISSISSIPPI

CITY           SKY/WX    TMP DP  RH WIND       PRES   REMARKS
BAY ST LOUIS   SUNNY     66  50  55 CALM      30.08S
BILOXI         SUNNY     66  53  61 N6        30.08R
PASCAGOULA     SUNNY     68  54  60 CALM      30.08R
GULFPORT       SUNNY     68  52  56 N6        30.07S
$$



USA.gov is the U.S. government's official web portal to all federal, state and local government web resources and services.